Weather in Kueda

Russia / Perm Krai     56°25′48″N   55°35′28″E
В апреле 2022 года жителям России запретили посещать сайт meteo.paraplan.net по решению Генеральной прокуратуры. Аудитория сайта уменьшилась в 10 раз. Владельцы сайта не видят смысла в поддержке погодного сервера в таких условиях. Сайт будет закрыт в октябре.
temp.,
°C
wind,
m/s
gust,
m/s
humid.,
%
clouds,
%
prec.,
mm/h
press.,
hPa
HPBL,
m
4 october, tue
tue423:00+9s3116054 0.0 1026233
02:00+7s3105994 0.0 1027206
05:00+6s3106012 0.0 1028185
08:00+6sse3106039 0.0 1029191
11:00+11s59395 0.0 1030430
14:00+15s68315 0.0 1030790
17:00+14s58345 0.0 1030717
20:00+10sse3544100 0.0 103176
5 october, wed
wed523:00+8sse344797 0.0 103149
02:00+7sse31145100 0.0 1031272
05:00+7sse41142100 0.0 1030304
08:00+7sse41042100 0.0 1030323
11:00+9s4837100 0.0 1029424
14:00+11sse5934100 0.0 1027623
17:00+10sse51243100 0.1 1027616
20:00+10s51233100 0.0 1026492
6 october, thu
thu623:00+10s51234100 0.0 1025449
02:00+9s61235100 0.0 1024637
05:00+6se5986100 1.7 1023377
08:00+6ese51280100 0.0 1020343
11:00+9sse51049100 0.0 1018426
14:00+11s6124299 0.0 1016737
17:00+8s71172100 0.0 1016598
20:00+7s4107575 0.0 1016367
7 october, fri
fri723:00+7s489129 0.2 1016257
02:00+5sw37955 0.0 1016166
05:00+3sw389610 0.0 1016193
08:00+3sw259596 0.0 1016149
11:00+6sw4684100 0.0 1016414
14:00+9sw466856 0.0 1015993
17:00+8sw5871100 0.1 1014719
20:00+8wsw71083100 0.3 1013998
8 october, sat
sat823:00+7wsw71186100 2.1 10121008
02:00+7wsw5119399 0.1 1012543
05:00+7w61185100 0.2 1013758
08:00+8wnw81382100 1.0 10131058
11:00+8wnw7117876 1.1 1016974
14:00+9wnw61178100 0.0 1018975
17:00+10wnw7107264 0.2 10191140
20:00+8wnw5107883 0.1 1022612